PROBA-1 1 26958U 01049B 21019.02374183 .00000285 00000-0 29913-4 0 9998 2 26958 97.7498 336.9287 0071148 260.4458 98.8723 14.95618531 47577 BIRD 2 1 26959U 01049C 21018.71177100 .00001365 00000-0 38415-4 0 9991 2 26959 97.8180 72.5797 0009207 56.8800 303.3327 15.38427783373954 CUTE-1 (CO-55) 1 27844U 03031E 21018.77473998 .00000037 00000-0 36446-4 0 9995 2 27844 98.6817 29.2481 0010418 147.3255 212.8570 14.22282705910708 CUBESAT XI-IV (CO-57) 1 27848U 03031J 21018.72358163 .00000027 00000-0 32235-4 0 9991 2 27848 98.6879 29.7658 0010087 159.6221 200.5361 14.21863411910533 GENESIS 1 1 29252U 06029A 21019.12987043 .00000360 00000-0 27388-4 0 9995 2 29252 64.5230 316.0372 0024182 342.4171 17.6113 15.18431022800928 FALCONSAT-3 1 30776U 07006E 21018.22729155 .00003239 00000-0 82198-4 0 9990 2 30776 35.4355 344.6547 0003156 307.4350 52.6090 15.39333905769937 GENESIS 2 1 31789U 07028A 21018.67988457 .00000536 00000-0 36587-4 0 9998 2 31789 64.5063 359.5496 0029269 219.1324 140.7683 15.17567651747837 APRIZESAT 4 1 35684U 09041D 21018.87674462 .00000021 00000-0 10568-4 0 9993 2 35684 98.2972 10.2024 0046622 200.4761 159.4582 14.79330079618983 APRIZESAT 3 1 35686U 09041F 21019.13802897 .00000051 00000-0 12029-4 0 9997 2 35686 98.1555 88.3983 0073971 65.7743 295.1179 14.87459367622199 PROBA-2 1 36037U 09059B 21019.08042868 -.00000017 00000-0 67834-5 0 9993 2 36037 98.2214 210.4223 0012197 253.2946 106.6912 14.53123051594640 APRIZESAT 5 1 37792U 11044E 21019.15000291 .00000024 00000-0 11941-4 0 9995 2 37792 98.3922 232.2935 0057650 200.0196 159.8750 14.75448713507292 APRIZESAT 6 1 37793U 11044F 21018.80223241 .00000042 00000-0 15414-4 0 9998 2 37793 98.4278 207.3038 0045798 242.1005 128.7145 14.72504736506120 TET-1 1 38710U 12039D 21018.78592757 .00003887 00000-0 64140-4 0 9991 2 38710 97.5778 64.2676 0003457 109.8747 250.2878 15.52954618477286 PROBA-V 1 39159U 13021A 21019.09162683 -.00000036 00000-0 23467-5 0 9999 2 39159 98.4323 73.8727 0004868 142.2665 217.8856 14.22995249400170 STPSAT-3 1 39380U 13064A 21018.98778458 .00000624 00000-0 22212-4 0 9990 2 39380 40.4988 237.8482 0001471 154.4169 205.6718 15.38197079401627 APRIZESAT 7 1 39416U 13066A 21018.73673467 .00000056 00000-0 12832-4 0 9995 2 39416 97.5312 21.4105 0039652 253.7878 105.8972 14.84028794387692 APRIZESAT 8 1 39425U 13066K 21018.87571064 .00000070 00000-0 15307-4 0 9996 2 39425 97.5687 12.0069 0050425 287.5898 71.9811 14.81238240386780 BUGSAT-1 (TITA) 1 40014U 14033E 21019.16885329 .00000135 00000-0 17826-4 0 9992 2 40014 98.0932 353.5928 0030238 300.3350 59.4875 14.95622133359255 SAUDISAT 4 1 40016U 14033G 21019.16005808 .00000011 00000-0 88220-5 0 9990 2 40016 97.6827 236.2198 0048586 10.1653 350.0527 14.75326460354585 APRIZESAT 9 1 40018U 14033J 21019.11283029 .00000036 00000-0 13555-4 0 9995 2 40018 97.6960 213.2570 0072692 65.6174 295.2597 14.70022091353216 APRIZESAT 10 1 40019U 14033K 21019.12573712 .00000021 00000-0 11610-4 0 9992 2 40019 97.7234 202.5953 0085611 98.4347 262.6574 14.67078658352565 TDS 1 1 40076U 14037H 21019.11214372 .00000226 00000-0 33896-4 0 9999 2 40076 98.4451 217.8236 0005924 293.7122 66.3469 14.84628305353450 TIANTUO 2 1 40144U 14053B 21019.01292935 .00000646 00000-0 21154-4 0 9993 2 40144 97.2353 104.1333 0009822 248.8141 214.2658 15.35202592356127 TECHNOSAT 1 42829U 17042E 21019.15746240 .00000036 00000-0 88894-5 0 9992 2 42829 97.4905 256.4140 0012737 287.8434 72.1395 14.91204270191434 FLYING LAPTOP 1 42831U 17042G 21018.99834784 .00000159 00000-0 21243-4 0 9997 2 42831 97.4909 256.4475 0012644 288.3871 71.5972 14.91223854191411 HAWK-A 1 43765U 18099H 21019.21455887 .00000361 00000-0 37030-4 0 9992 2 43765 97.6804 93.6709 0014464 189.0993 170.9968 14.96211876116231 HAWK-B 1 43794U 18099AN 21018.74681878 .00000674 00000-0 64741-4 0 9998 2 43794 97.6810 93.2160 0014861 190.2642 169.8278 14.96213681116151 HAWK-C 1 43799U 18099AT 21018.74661063 .00000672 00000-0 64575-4 0 9990 2 43799 97.6809 93.1328 0014785 190.0718 170.0209 14.96211953116907 SALSAT 1 46495U 20068K 21018.90572919 .00001023 00000-0 79752-4 0 9998 2 46495 97.6801 317.4182 0016154 217.3198 142.6907 15.03322076 16864